When you browse on this site, cookies collect data to enhance your experience and personalize the content and advertising you see.
Visit our Privacy Policy to learn more. By continuing to use the site, you agree to this use of cookies and data.
  • In Switzerland
  • List of Countries
  • For 7 days
  • Water Temperature
  • Weather Map
  • Weather Widgets
  • user-avatar
    Login

    Hourly Weather Bristol

    Today, 23 September, Monday

    Time Temperature Precipitation Wind Pressure Humidity
    00:00 +13°C° 0 mm 4 mps 753 mmHg 93%
    01:00 +13°C° 0.1 mm 4 mps 754 mmHg 93%
    02:00 +13°C° 0.1 mm 5 mps 754 mmHg 92%
    03:00 +13°C° 0.1 mm 5 mps 754 mmHg 91%
    04:00 +13°C° 0 mm 4 mps 754 mmHg 92%
    05:00 +12°C° 0 mm 4 mps 755 mmHg 93%
    06:00 +11°C° 0 mm 3 mps 755 mmHg 93%
    07:00 +13°C° 0 mm 4 mps 755 mmHg 89%
    08:00 +14°C° 0 mm 4 mps 756 mmHg 84%
    09:00 +16°C° 0 mm 5 mps 756 mmHg 80%
    10:00 +17°C° 0 mm 6 mps 755 mmHg 75%
    11:00 +19°C° 0 mm 6 mps 755 mmHg 70%
    12:00 +20°C° 0 mm 7 mps 755 mmHg 65%
    13:00 +17°C° 0.6 mm 7 mps 754 mmHg 73%
    14:00 +16°C° 0.6 mm 7 mps 754 mmHg 82%
    15:00 +15°C° 0.6 mm 7 mps 753 mmHg 90%
    16:00 +15°C° 0.7 mm 7 mps 753 mmHg 91%
    17:00 +15°C° 0.7 mm 7 mps 753 mmHg 92%
    18:00 +15°C° 0.7 mm 7 mps 753 mmHg 94%
    19:00 +16°C° 0.3 mm 6 mps 753 mmHg 94%
    20:00 +16°C° 0.3 mm 5 mps 753 mmHg 95%
    21:00 +16°C° 0.3 mm 5 mps 753 mmHg 96%
    22:00 +16°C° 0.1 mm 5 mps 752 mmHg 96%
    23:00 +17°C° 0.1 mm 4 mps 752 mmHg 95%

    Tomorrow, 24 September, Tuesday

    Time Temperature Precipitation Wind Pressure Humidity
    00:00 +17°C° 0.1 mm 4 mps 752 mmHg 95%
    01:00 +17°C° 0.2 mm 4 mps 751 mmHg 95%
    02:00 +17°C° 0.2 mm 4 mps 751 mmHg 95%
    03:00 +17°C° 0.2 mm 4 mps 750 mmHg 95%
    04:00 +16°C° 3.1 mm 5 mps 749 mmHg 95%
    05:00 +16°C° 3.1 mm 6 mps 749 mmHg 94%
    06:00 +16°C° 3.1 mm 6 mps 748 mmHg 94%
    07:00 +16°C° 1.4 mm 6 mps 748 mmHg 92%
    08:00 +16°C° 1.4 mm 5 mps 748 mmHg 91%
    09:00 +16°C° 1.4 mm 5 mps 748 mmHg 90%
    10:00 +17°C° 0.3 mm 6 mps 748 mmHg 85%
    11:00 +17°C° 0.3 mm 6 mps 748 mmHg 80%
    12:00 +18°C° 0.3 mm 7 mps 748 mmHg 75%
    13:00 +18°C° 0.1 mm 7 mps 748 mmHg 74%
    14:00 +18°C° 0.1 mm 7 mps 748 mmHg 73%
    15:00 +17°C° 0.1 mm 7 mps 749 mmHg 72%
    16:00 +16°C° 0.4 mm 6 mps 748 mmHg 78%
    17:00 +15°C° 0.4 mm 6 mps 748 mmHg 84%
    18:00 +14°C° 0.4 mm 5 mps 748 mmHg 91%
    19:00 +14°C° 0.4 mm 6 mps 748 mmHg 91%
    20:00 +14°C° 0.4 mm 6 mps 748 mmHg 92%
    21:00 +14°C° 0.4 mm 6 mps 748 mmHg 92%
    22:00 +14°C° 1.1 mm 7 mps 747 mmHg 92%
    23:00 +14°C° 1.1 mm 7 mps 747 mmHg 92%

    Day after tomorrow, 25 September, Wednesday

    Time Temperature Precipitation Wind Pressure Humidity
    00:00 +15°C° 1.1 mm 7 mps 746 mmHg 92%
    01:00 +14°C° 0.5 mm 6 mps 746 mmHg 93%
    02:00 +14°C° 0.5 mm 6 mps 746 mmHg 93%
    03:00 +14°C° 0.5 mm 6 mps 746 mmHg 94%
    04:00 +14°C° 0.9 mm 6 mps 746 mmHg 94%
    05:00 +14°C° 0.9 mm 6 mps 746 mmHg 94%
    06:00 +15°C° 0.9 mm 6 mps 746 mmHg 93%
    07:00 +15°C° 0.2 mm 6 mps 747 mmHg 92%
    08:00 +15°C° 0.2 mm 7 mps 747 mmHg 91%
    09:00 +16°C° 0.2 mm 7 mps 748 mmHg 90%
    10:00 +16°C° 0.2 mm 7 mps 748 mmHg 88%
    11:00 +17°C° 0.2 mm 7 mps 749 mmHg 85%
    12:00 +17°C° 0.2 mm 7 mps 750 mmHg 83%
    13:00 +17°C° 0.2 mm 7 mps 750 mmHg 82%
    14:00 +17°C° 0.2 mm 7 mps 750 mmHg 81%
    15:00 +17°C° 0.2 mm 7 mps 750 mmHg 80%
    16:00 +17°C° 0 mm 6 mps 750 mmHg 83%
    17:00 +16°C° 0 mm 5 mps 751 mmHg 86%
    18:00 +15°C° 0 mm 4 mps 751 mmHg 89%
    19:00 +15°C° 0 mm 4 mps 751 mmHg 90%
    20:00 +15°C° 0 mm 4 mps 751 mmHg 92%
    21:00 +15°C° 0 mm 4 mps 751 mmHg 93%
    22:00 +15°C° 0.2 mm 4 mps 751 mmHg 94%
    23:00 +16°C° 0.2 mm 5 mps 751 mmHg 94%

    26 September, Thursday

    Time Temperature Precipitation Wind Pressure Humidity
    00:00 +16°C° 0.2 mm 5 mps 750 mmHg 95%
    01:00 +16°C° 1 mm 5 mps 751 mmHg 95%
    02:00 +16°C° 1 mm 6 mps 751 mmHg 95%
    03:00 +16°C° 1 mm 6 mps 751 mmHg 95%
    04:00 +16°C° 0.6 mm 6 mps 751 mmHg 94%
    05:00 +16°C° 0.6 mm 6 mps 751 mmHg 94%
    06:00 +16°C° 0.6 mm 6 mps 751 mmHg 93%
    07:00 +16°C° 0.2 mm 6 mps 751 mmHg 91%
    08:00 +15°C° 0.2 mm 5 mps 751 mmHg 89%
    09:00 +15°C° 0.2 mm 5 mps 752 mmHg 86%
    10:00 +16°C° 0.1 mm 5 mps 752 mmHg 80%
    11:00 +17°C° 0.1 mm 6 mps 752 mmHg 74%
    12:00 +17°C° 0.1 mm 6 mps 752 mmHg 68%
    13:00 +17°C° 0.1 mm 6 mps 752 mmHg 68%
    14:00 +17°C° 0.1 mm 6 mps 752 mmHg 69%
    15:00 +17°C° 0.1 mm 6 mps 752 mmHg 70%
    16:00 +16°C° 0.2 mm 6 mps 753 mmHg 74%
    17:00 +14°C° 0.2 mm 5 mps 753 mmHg 78%
    18:00 +13°C° 0.2 mm 5 mps 753 mmHg 81%
    19:00 +13°C° 0.1 mm 5 mps 753 mmHg 83%
    20:00 +12°C° 0.1 mm 5 mps 753 mmHg 85%
    21:00 +12°C° 0.1 mm 5 mps 754 mmHg 87%
    22:00 +12°C° 0.1 mm 5 mps 754 mmHg 88%
    23:00 +12°C° 0.1 mm 5 mps 754 mmHg 88%

    27 September, Friday

    Time Temperature Precipitation Wind Pressure Humidity
    00:00 +12°C° 0.1 mm 5 mps 754 mmHg 89%
    01:00 +12°C° 0.1 mm 5 mps 753 mmHg 89%
    02:00 +12°C° 0.1 mm 5 mps 753 mmHg 89%
    03:00 +10°C° 0.1 mm 5 mps 753 mmHg 89%
    04:00 +10°C° 0.1 mm 5 mps 753 mmHg 90%
    05:00 +10°C° 0.1 mm 5 mps 753 mmHg 90%
    06:00 +10°C° 0.1 mm 6 mps 753 mmHg 90%
    07:00 +11°C° 0.2 mm 6 mps 753 mmHg 87%
    08:00 +12°C° 0.2 mm 7 mps 753 mmHg 85%
    09:00 +15°C° 0.2 mm 8 mps 753 mmHg 82%
    10:00 +15°C° 0.4 mm 8 mps 753 mmHg 82%
    11:00 +15°C° 0.4 mm 8 mps 753 mmHg 81%
    12:00 +15°C° 0.4 mm 8 mps 753 mmHg 80%
    13:00 +15°C° 0.3 mm 8 mps 753 mmHg 80%
    14:00 +15°C° 0.3 mm 8 mps 753 mmHg 79%
    15:00 +15°C° 0.3 mm 8 mps 752 mmHg 79%
    16:00 +13°C° 0.2 mm 8 mps 752 mmHg 81%
    17:00 +14°C° 0.2 mm 7 mps 752 mmHg 82%
    18:00 +12°C° 0.2 mm 7 mps 753 mmHg 84%
    19:00 +12°C° 0.2 mm 7 mps 753 mmHg 84%
    20:00 +11°C° 0.2 mm 7 mps 753 mmHg 85%
    21:00 +11°C° 0.2 mm 7 mps 753 mmHg 86%
    22:00 +11°C° 0.3 mm 7 mps 753 mmHg 86%
    23:00 +11°C° 0.3 mm 7 mps 753 mmHg 86%

    28 September, Saturday

    Time Temperature Precipitation Wind Pressure Humidity
    00:00 +12°C° 0.3 mm 8 mps 753 mmHg 86%
    01:00 +12°C° 0.2 mm 7 mps 753 mmHg 87%
    02:00 +11°C° 0.2 mm 7 mps 753 mmHg 87%
    03:00 +11°C° 0.2 mm 7 mps 753 mmHg 87%
    04:00 +11°C° 0.1 mm 6 mps 754 mmHg 87%
    05:00 +11°C° 0.1 mm 6 mps 754 mmHg 87%
    06:00 +11°C° 0.1 mm 6 mps 754 mmHg 87%
    07:00 +13°C° 0 mm 6 mps 754 mmHg 84%
    08:00 +14°C° 0 mm 7 mps 755 mmHg 81%
    09:00 +15°C° 0 mm 7 mps 755 mmHg 78%
    10:00 +15°C° 0.2 mm 8 mps 755 mmHg 76%
    11:00 +16°C° 0.2 mm 8 mps 755 mmHg 74%
    12:00 +16°C° 0.2 mm 8 mps 755 mmHg 72%
    13:00 +15°C° 0.3 mm 8 mps 755 mmHg 76%
    14:00 +15°C° 0.3 mm 7 mps 755 mmHg 79%
    15:00 +14°C° 0.3 mm 7 mps 755 mmHg 82%
    16:00 +14°C° 0.2 mm 6 mps 755 mmHg 84%
    17:00 +14°C° 0.2 mm 6 mps 755 mmHg 85%
    18:00 +13°C° 0.2 mm 5 mps 755 mmHg 86%
    19:00 +13°C° 0.1 mm 5 mps 755 mmHg 87%
    20:00 +12°C° 0.1 mm 5 mps 755 mmHg 88%
    21:00 +12°C° 0.1 mm 5 mps 756 mmHg 89%
    22:00 +12°C° 0.2 mm 5 mps 755 mmHg 89%
    23:00 +12°C° 0.2 mm 5 mps 755 mmHg 90%
    Show more